TimeMDT,TemperatureF,Dew PointF,Humidity,Sea Level PressureIn,VisibilityMPH,Wind Direction,Wind SpeedMPH,Gust SpeedMPH,PrecipitationIn,Events,Conditions,WindDirDegrees,DateUTC
12:18 AM,64.4,62.6,94,30.23,10.0,ENE,4.6,-,N/A,,Overcast,60,2013-09-12 06:18:00
12:53 AM,64.9,63.0,93,30.16,10.0,Calm,Calm,-,N/A,,Overcast,0,2013-09-12 06:53:00
1:11 AM,64.4,64.4,100,30.23,10.0,Calm,Calm,-,N/A,,Overcast,0,2013-09-12 07:11:00
1:53 AM,64.9,64.0,97,30.16,8.0,SE,3.5,-,N/A,,Overcast,140,2013-09-12 07:53:00
2:53 AM,64.9,63.0,93,30.16,7.0,Calm,Calm,-,N/A,,Overcast,0,2013-09-12 08:53:00
3:53 AM,64.0,62.1,93,30.16,7.0,Calm,Calm,-,N/A,,Scattered Clouds,0,2013-09-12 09:53:00
4:09 AM,64.4,62.6,94,30.24,5.0,NE,4.6,-,N/A,,Mostly Cloudy,40,2013-09-12 10:09:00
4:53 AM,64.0,63.0,96,30.17,5.0,Calm,Calm,-,N/A,,Overcast,0,2013-09-12 10:53:00
5:34 AM,64.4,62.6,94,30.25,3.0,Calm,Calm,-,N/A,,Overcast,0,2013-09-12 11:34:00
5:53 AM,64.0,63.0,96,30.19,3.0,NE,4.6,-,N/A,,Overcast,40,2013-09-12 11:53:00
6:22 AM,64.4,62.6,94,30.25,4.0,East,3.5,-,N/A,,Overcast,80,2013-09-12 12:22:00
6:48 AM,64.4,62.6,94,30.26,6.0,East,6.9,-,N/A,,Overcast,80,2013-09-12 12:48:00
6:53 AM,64.0,63.0,96,30.21,7.0,ENE,5.8,-,N/A,,Overcast,70,2013-09-12 12:53:00
7:40 AM,64.4,62.6,94,30.27,8.0,ENE,4.6,-,N/A,,Overcast,60,2013-09-12 13:40:00
7:53 AM,64.9,63.0,93,30.22,9.0,ENE,5.8,-,N/A,,Overcast,70,2013-09-12 13:53:00
8:01 AM,64.4,62.6,94,30.27,9.0,ENE,8.1,-,N/A,,Overcast,70,2013-09-12 14:01:00
8:10 AM,64.4,62.6,94,30.28,8.0,ENE,8.1,-,N/A,,Overcast,70,2013-09-12 14:10:00
8:53 AM,66.9,64.0,90,30.23,8.0,East,10.4,-,0.01,,Overcast,90,2013-09-12 14:53:00
9:11 AM,68.0,64.4,88,30.29,10.0,East,9.2,-,N/A,,Overcast,100,2013-09-12 15:11:00
9:53 AM,70.0,63.0,78,30.23,10.0,ESE,5.8,-,N/A,,Mostly Cloudy,120,2013-09-12 15:53:00
10:48 AM,73.4,62.6,69,30.29,10.0,ESE,10.4,17.3,N/A,,Mostly Cloudy,110,2013-09-12 16:48:00
10:53 AM,72.0,62.1,71,30.22,10.0,East,12.7,-,N/A,,Mostly Cloudy,80,2013-09-12 16:53:00
11:53 AM,70.0,63.0,78,30.22,10.0,East,11.5,19.6,N/A,,Overcast,100,2013-09-12 17:53:00
12:27 PM,71.6,60.8,69,30.28,10.0,East,12.7,17.3,N/A,,Overcast,100,2013-09-12 18:27:00
12:41 PM,73.4,60.8,65,30.28,10.0,ESE,12.7,-,N/A,,Mostly Cloudy,110,2013-09-12 18:41:00
12:53 PM,72.0,61.0,68,30.21,10.0,East,12.7,-,N/A,,Overcast,100,2013-09-12 18:53:00
1:53 PM,73.0,61.0,66,30.19,10.0,ESE,10.4,-,N/A,,Mostly Cloudy,120,2013-09-12 19:53:00
2:53 PM,73.0,59.0,61,30.18,10.0,SE,15.0,23.0,0.00,,Scattered Clouds,130,2013-09-12 20:53:00
3:53 PM,66.9,62.1,84,30.18,10.0,SE,13.8,-,0.00,Rain,Light Rain,130,2013-09-12 21:53:00
4:53 PM,66.0,63.0,90,30.19,10.0,SE,11.5,21.9,0.01,Rain,Light Rain,140,2013-09-12 22:53:00
5:53 PM,66.0,61.0,84,30.19,10.0,ESE,8.1,-,0.00,,Mostly Cloudy,120,2013-09-12 23:53:00
6:37 PM,66.2,62.6,88,30.23,10.0,ESE,8.1,-,N/A,,Mostly Cloudy,120,2013-09-13 00:37:00
6:46 PM,66.2,62.6,88,30.23,10.0,ESE,10.4,-,N/A,,Mostly Cloudy,120,2013-09-13 00:46:00
6:53 PM,66.0,63.0,90,30.18,9.0,ESE,9.2,-,N/A,,Overcast,120,2013-09-13 00:53:00
7:53 PM,64.9,63.0,93,30.19,10.0,ESE,5.8,-,N/A,,Overcast,120,2013-09-13 01:53:00
8:53 PM,64.9,62.1,90,30.19,10.0,ESE,6.9,-,N/A,,Overcast,110,2013-09-13 02:53:00
9:53 PM,64.9,61.0,87,30.18,10.0,ESE,5.8,-,N/A,,Overcast,110,2013-09-13 03:53:00
10:25 PM,64.4,60.8,88,30.24,10.0,ESE,5.8,-,N/A,,Overcast,110,2013-09-13 04:25:00
10:53 PM,64.0,61.0,90,30.18,10.0,ESE,4.6,-,N/A,,Overcast,110,2013-09-13 04:53:00
11:16 PM,64.4,60.8,88,30.25,10.0,ESE,5.8,-,N/A,,Overcast,110,2013-09-13 05:16:00
11:26 PM,64.4,60.8,88,30.24,10.0,ESE,5.8,-,N/A,,Overcast,110,2013-09-13 05:26:00
11:53 PM,64.9,61.0,87,30.17,10.0,East,9.2,-,N/A,,Overcast,100,2013-09-13 05:53:00